Theta_e
334 325 326 326 323 320 319 318 317 315 317 318 316 315 315 314 313 312 311 310 310 310 311 312 312 311 311 309 309 308 307 308 310 317 340 344 342 341 341 341 341 345 344
330 325 325 325 324 320 318 318 317 316 317 317 316 315 315 315 314 313 310 309 310 311 313 314 313 313 314 313 311 309 308 307 307 309 317 340 344 342 342 340 341 345 347
329 325 324 323 324 320 319 318 318 317 317 318 317 316 316 316 315 315 313 312 316 316 314 312 312 311 312 316 316 314 310 308 307 307 308 322 343 344 341 341 341 342 346
329 325 324 322 322 319 319 319 318 318 318 318 318 316 316 315 315 315 316 316 322 320 318 322 321 320 316 319 322 320 318 314 309 307 307 308 328 340 340 341 341 341 343
333 326 325 323 320 320 319 319 319 318 318 318 317 316 315 315 315 316 318 321 324 325 324 323 325 325 327 329 329 327 323 322 318 311 307 311 322 329 337 338 342 341 342
337 332 326 324 320 320 320 320 319 319 318 318 318 317 316 315 316 318 324 327 326 325 329 330 330 330 327 329 332 333 330 330 325 320 316 319 322 326 337 337 339 342 342
336 336 331 324 324 321 321 320 320 319 319 319 319 319 318 316 317 326 330 331 329 324 324 328 329 330 332 330 330 329 326 329 331 328 331 326 326 328 327 330 338 342 343
335 335 335 333 325 324 322 322 321 320 320 320 320 320 320 319 316 321 330 334 333 324 324 323 325 327 329 327 327 328 326 325 325 332 331 331 328 329 330 328 327 337 342
336 336 335 335 333 326 324 323 322 321 321 321 320 320 320 320 318 319 324 328 323 322 323 322 322 322 322 322 322 326 328 328 323 322 334 335 331 328 329 328 324 323 340
336 337 336 336 336 335 325 323 323 323 322 322 322 322 321 321 320 321 328 331 333 331 329 324 318 316 316 317 324 323 325 328 325 323 325 335 334 333 330 329 323 317 336
330 335 337 338 337 338 328 324 323 324 323 321 323 323 322 321 321 322 332 334 334 332 329 325 317 318 318 317 317 318 320 321 322 323 326 330 333 332 331 330 329 315 329
329 329 336 338 339 337 340 327 325 324 324 323 323 324 323 324 327 330 335 333 332 331 330 329 323 326 324 318 318 327 330 329 323 327 330 330 331 332 333 332 331 318 322
329 329 331 337 338 338 340 343 337 330 326 324 323 324 325 332 334 334 335 335 332 332 331 330 330 329 330 330 329 330 330 330 331 328 329 331 331 331 332 331 331 317 315
329 329 331 336 337 338 339 343 340 339 337 330 325 327 336 335 327 326 332 332 333 332 331 330 330 331 330 331 329 328 330 331 329 330 330 331 331 330 330 330 330 315 315
328 328 331 336 336 337 338 342 341 340 343 339 338 339 339 333 327 334 335 334 333 332 332 331 329 329 329 328 327 327 328 330 331 332 330 331 331 330 330 329 329 315 314
327 328 331 335 336 336 337 339 341 340 342 340 339 339 336 332 328 335 334 333 332 331 330 332 331 330 328 328 328 329 328 328 328 329 331 330 330 328 327 326 327 318 315
328 328 331 333 336 336 336 339 340 340 341 339 338 336 334 332 330 332 334 334 333 331 331 330 331 330 328 328 327 328 326 327 327 329 329 331 330 327 328 325 325 319 316
328 328 331 332 335 338 337 340 339 343 341 338 336 334 332 333 331 330 333 333 332 334 331 329 329 329 329 327 328 328 326 327 327 326 328 329 330 330 329 328 318 315 318
329 328 329 332 336 340 341 342 341 344 341 338 334 333 333 334 333 330 331 331 332 332 329 329 329 328 328 327 326 328 327 327 328 328 328 325 326 330 329 328 329 316 316
329 329 331 333 336 341 342 344 344 343 341 336 332 332 334 334 335 334 333 331 332 332 330 329 329 328 327 328 328 328 327 326 328 329 328 326 328 324 328 330 332 329 319
331 331 334 336 338 342 345 345 345 343 338 334 332 333 333 334 334 334 330 332 332 330 329 329 329 327 326 328 327 327 326 326 326 329 326 328 327 327 327 329 331 332 330
332 332 333 337 339 341 345 344 343 339 335 333 332 333 333 334 332 333 333 331 331 330 329 328 328 327 326 325 324 327 327 325 324 328 326 326 328 328 329 328 330 330 333
333 333 336 339 340 342 343 343 339 335 334 333 333 334 333 332 331 330 331 329 329 328 327 327 327 326 325 323 324 325 326 327 324 325 328 328 328 328 331 332 330 332 332
335 335 338 339 341 341 342 338 335 333 333 333 332 331 334 335 334 332 330 329 328 328 327 326 326 325 325 324 325 324 324 326 328 329 324 328 330 328 325 327 329 329 332
337 337 339 340 340 340 336 334 333 333 332 333 333 331 330 330 331 329 328 327 326 326 326 325 324 325 325 325 325 326 323 325 327 328 327 327 327 326 326 327 327 327 327
338 339 340 339 338 336 334 335 333 331 333 332 331 332 333 332 329 327 328 328 328 326 325 325 325 325 324 324 325 326 325 325 326 327 324 328 328 329 330 331 329 329 331
Wind_Speed
10 9 10 10 11 9 7 7 5 4 2 1 3 4 5 6 7 7 8 7 7 7 6 6 7 8 9 10 10 11 12 15 16 15 14 14 13 13 11 8 5 7 6
6 9 9 10 11 10 9 8 7 5 3 1 2 3 5 5 6 7 8 8 7 7 7 6 6 7 8 9 10 11 11 13 14 16 15 13 12 11 11 9 7 8 8
3 10 10 10 12 11 11 10 8 7 5 4 2 3 4 5 6 7 7 8 8 7 6 7 8 6 7 8 9 10 11 12 13 14 16 13 12 10 13 12 10 10 10
2 10 12 12 13 13 13 11 9 8 6 5 3 4 5 6 7 8 9 7 7 8 8 8 9 11 8 7 8 9 10 10 12 13 13 14 7 11 12 12 14 13 12
9 10 14 14 14 15 14 13 11 9 7 6 4 4 5 7 8 8 9 9 9 9 11 12 12 11 10 8 7 7 9 10 10 11 11 9 11 7 15 13 13 16 13
10 10 17 17 15 16 16 15 13 11 9 7 5 5 5 7 9 9 9 10 10 12 12 13 14 14 12 10 13 11 10 11 10 9 6 6 10 13 10 13 13 16 15
14 15 12 18 20 17 18 17 16 13 11 9 7 6 7 8 9 10 10 11 13 14 14 15 16 17 17 15 15 17 16 14 11 9 6 8 8 15 17 20 13 14 16
9 17 18 14 20 22 20 20 18 16 14 12 11 10 11 11 11 12 12 13 17 18 17 18 19 19 19 19 19 18 18 15 15 10 8 11 13 17 19 17 19 13 15
12 18 20 20 19 23 26 24 23 20 18 16 15 14 15 15 15 14 15 16 20 19 18 19 20 22 23 23 21 20 21 19 16 15 13 14 17 19 20 17 19 18 14
16 19 23 23 23 26 29 29 27 24 23 21 20 19 18 19 17 17 13 14 15 15 18 18 18 18 20 21 21 22 21 21 20 18 17 15 13 22 19 16 15 18 15
16 18 26 24 22 22 29 32 30 29 28 26 25 23 21 21 18 14 14 17 20 21 22 22 17 15 15 16 18 19 18 22 22 16 12 17 16 15 15 16 17 17 16
22 21 26 25 25 26 23 29 31 33 33 32 28 25 24 19 13 7 16 18 18 16 16 16 11 11 11 13 12 8 14 13 16 16 17 14 20 21 18 19 17 18 17
22 25 20 28 28 28 27 22 26 28 35 34 31 27 23 15 13 13 12 14 16 16 16 12 10 12 9 4 6 13 13 12 11 9 17 21 21 19 17 18 16 18 20
23 20 23 25 28 30 29 25 30 29 28 28 30 25 21 21 18 15 15 13 14 16 16 12 12 10 8 8 13 17 11 17 18 18 20 20 20 20 21 18 18 18 20
22 21 22 22 27 27 35 30 31 29 22 20 18 20 24 21 15 11 13 14 15 14 12 17 18 20 19 20 19 19 21 18 16 15 20 20 21 19 20 19 18 19 20
21 21 21 16 24 27 34 36 32 31 25 23 25 25 24 19 16 19 19 17 20 20 20 18 19 19 18 16 14 15 17 19 19 20 14 16 19 17 19 22 19 19 20
21 22 21 22 21 30 35 34 33 34 29 29 26 22 23 21 16 18 17 16 21 20 20 22 22 19 16 16 13 14 15 18 17 22 22 11 15 19 16 16 18 18 18
26 21 22 24 24 31 36 34 35 26 30 20 24 23 23 23 19 16 16 17 14 23 22 22 22 20 17 16 14 13 15 16 17 18 22 20 15 12 9 5 13 17 17
28 23 25 25 23 31 35 31 27 26 28 29 19 19 20 19 16 14 16 17 20 23 20 20 20 17 17 15 13 12 16 13 15 18 20 17 23 15 13 13 10 13 15
29 19 21 25 24 29 31 27 23 29 24 19 22 19 17 16 14 14 19 20 21 23 20 18 17 16 17 14 13 13 16 16 14 11 15 16 20 19 15 14 15 11 15
22 23 22 22 25 29 29 22 25 25 24 22 18 17 17 16 15 18 20 21 23 22 19 18 17 17 18 14 14 15 16 15 19 18 18 17 18 15 14 17 12 11 12
21 21 24 24 28 30 27 20 23 22 18 17 17 16 17 18 14 15 18 21 20 19 19 18 17 16 17 17 19 14 7 15 22 23 21 19 16 17 19 18 16 13 13
18 17 20 24 26 27 24 23 20 19 16 15 15 14 17 16 15 14 19 18 16 16 18 15 15 16 17 17 18 16 7 9 16 23 22 21 19 18 16 20 23 20 15
13 12 14 20 24 27 23 24 21 20 16 14 12 13 9 9 8 11 16 17 13 11 11 11 12 15 16 18 17 20 18 7 9 8 22 18 15 21 20 20 19 21 22
15 14 18 23 22 25 23 21 22 17 13 8 9 11 12 15 17 14 13 8 8 8 7 8 10 11 13 15 17 14 20 16 13 5 13 23 20 15 16 18 18 18 20
16 18 21 21 25 25 23 18 17 14 9 9 10 9 10 13 12 10 6 6 6 5 5 6 6 7 9 10 12 14 15 13 8 5 17 15 17 14 10 13 11 16 20
Wind_Direction
180 145 150 170 181 172 163 159 165 184 151 9 1 353 338 325 314 305 302 298 290 291 294 289 282 278 276 273 266 256 251 244 240 238 234 234 237 241 243 225 217 175 190
174 153 157 169 181 181 176 169 170 189 180 189 335 338 330 321 311 304 300 298 296 292 288 289 293 293 289 282 277 270 259 252 246 241 238 235 236 241 241 236 226 215 210
170 171 172 178 185 187 187 176 175 187 194 217 260 310 321 321 314 305 298 287 284 281 286 299 302 292 287 285 281 278 274 266 258 248 241 235 236 249 246 242 227 228 225
257 184 189 188 190 190 191 184 184 194 197 218 259 308 320 322 317 309 299 282 275 267 276 291 300 306 295 274 278 282 280 273 266 261 251 233 232 262 270 265 238 233 231
225 200 198 199 197 195 194 193 193 198 202 216 238 286 309 315 310 304 291 282 271 268 276 286 288 291 277 277 275 276 279 280 274 266 255 235 203 255 249 257 250 233 228
198 229 199 204 205 201 201 202 200 204 207 219 234 270 300 313 308 297 289 283 276 278 276 279 283 286 279 259 271 261 264 268 273 271 260 257 211 245 238 253 249 228 224
203 227 231 205 212 210 209 211 208 211 217 227 241 268 290 304 303 293 284 281 288 287 278 273 267 269 267 255 256 261 260 257 267 264 227 259 235 244 253 253 254 235 225
244 211 245 234 223 219 216 218 216 217 225 235 249 265 280 295 304 295 286 288 279 285 278 273 269 269 266 264 262 261 265 262 258 256 236 220 244 247 250 251 246 247 228
228 223 213 232 240 235 226 221 224 221 230 237 249 261 272 282 291 294 290 283 288 286 281 277 274 272 267 265 258 257 260 261 257 246 225 239 255 254 254 258 254 243 231
234 220 217 222 238 244 233 225 224 226 229 235 244 255 266 273 284 293 294 304 299 302 303 290 284 278 271 264 258 253 251 255 262 256 235 228 254 241 248 259 265 235 226
292 248 215 215 238 253 237 229 225 226 230 232 239 248 260 268 283 293 302 304 298 305 307 296 290 284 280 272 267 264 261 258 262 255 255 219 246 238 239 257 268 239 222
284 286 229 216 221 248 245 238 227 227 231 233 238 245 254 262 275 268 260 278 297 309 313 320 296 306 293 272 269 271 267 286 256 232 235 236 238 248 250 259 264 246 222
291 295 272 218 220 228 236 233 239 228 231 233 237 242 250 252 262 271 274 288 293 296 303 314 308 307 315 315 282 276 277 274 266 246 216 242 231 238 252 261 268 243 221
291 290 284 224 222 225 223 218 241 236 237 232 233 236 234 238 246 243 240 238 275 286 287 274 285 290 257 251 246 234 248 259 263 234 246 236 234 237 246 258 263 240 221
290 286 275 237 228 236 220 214 222 232 233 231 227 230 233 241 241 241 249 246 237 248 272 278 266 247 259 260 263 254 249 239 254 244 231 237 231 238 250 260 259 237 220
289 281 267 251 233 244 239 219 217 218 221 220 214 224 239 244 232 228 243 255 264 265 253 253 255 262 255 260 253 244 251 243 238 245 238 222 229 242 254 259 253 234 218
292 276 256 248 242 244 243 225 210 221 212 215 212 226 238 247 241 235 237 240 265 274 260 251 252 255 263 252 257 258 267 248 234 235 221 243 254 256 259 255 242 229 218
286 263 256 244 240 239 238 227 211 214 214 217 225 221 233 240 254 241 248 261 265 264 273 256 255 258 257 246 242 252 260 255 233 229 223 220 232 241 258 256 234 229 221
278 260 249 245 230 233 232 230 217 214 221 213 221 221 235 249 264 267 265 259 256 266 269 255 256 253 248 245 236 251 249 243 231 221 237 233 221 233 253 257 246 221 221
278 249 243 234 216 228 228 223 207 213 221 213 217 223 231 248 258 256 263 281 272 273 270 250 252 253 242 238 239 248 256 252 226 238 220 213 212 232 216 234 238 224 215
238 238 225 224 210 214 211 200 198 205 213 205 219 223 227 237 243 250 272 268 275 274 270 254 253 250 232 230 240 247 251 248 217 212 225 211 220 226 211 230 223 213 223
244 246 233 219 206 208 202 203 198 200 219 208 218 228 235 243 258 268 266 276 274 276 265 259 253 247 238 236 241 244 250 243 223 214 208 209 222 221 217 217 227 232 225
240 243 227 212 206 195 192 186 191 194 207 203 211 207 239 253 258 264 274 283 278 272 268 262 253 244 243 244 239 228 207 221 223 217 208 213 218 222 205 219 217 214 232
219 214 193 181 183 182 183 177 187 188 194 208 227 234 214 227 246 280 287 286 283 277 266 257 250 245 248 248 245 235 225 208 195 208 216 212 212 220 228 230 205 207 219
186 176 177 182 178 169 170 183 183 182 198 184 202 244 255 259 265 275 275 282 279 282 270 263 255 247 245 246 241 239 226 235 236 209 196 207 216 225 218 215 218 214 224
157 163 174 172 152 174 166 179 181 189 176 185 210 230 253 278 283 272 245 312 295 280 282 277 258 248 238 233 230 223 229 232 234 226 207 202 201 202 211 212 198 205 209